User: anonymous
Location: Fort Wayne
(41.1310°N, 85.1290°W)
Time: 09:47:22
(UTC-04:00)
Language:

SR - Orbit

View from above orbital plane
View from above orbital plane
View from above satellite
View from above satellite

Ground track
Ground track

The orbit data is extracted from the following two-line orbital elements,

1 00046U 60007B   14109.82306864  .00002317  00000-0  49223-3 0  6224
2 00046 066.6938 003.5920 0214497 005.8990 354.4565 14.47647367813066
Epoch (UTC): 19 April 2014 19:45:13
Eccentricity: 0.0214497
inclination: 66.6938°
perigee height: 581 km
apogee height: 886 km
right ascension of ascending node: 3.5920°
argument of perigee: 5.8990°
revolutions per day: 14.47647367
mean anomaly at epoch: 354.4565°
orbit number at epoch: 81306

The dashed part of the orbit path shows where the satellite is in the earth's shadow,  

DLR